Weather History for KIPL - January, 2013

Change the Weather History Date:

Friday, January 4, 2013

  Actual Average Record
Temperature  
Mean Temperature 48 °F -  
Max Temperature 62 °F 65 °F 81 °F (1981)
Min Temperature 33 °F 39 °F 21 °F (1949)
Degree Days  
Heating Degree Days 18    
Moisture  
Dew Point 16 °F    
Average Humidity 33    
Maximum Humidity 48    
Minimum Humidity 12    
Precipitation  
Precipitation 0.00 in - - ()
Sea Level Pressure  
Sea Level Pressure 30.26 in    
Wind  
Wind Speed 5 mph (West)    
Max Wind Speed 9 mph    
Max Gust Speed -    
Visibility 10 miles    
Events      
Averages and records for this station are not official NWS values.
T = Trace of Precipitation, MM = Missing Value Source: NWS Daily Summary

Daily Weather History Graph

Daily Weather History Graph

Search for Another Location

Airport or City:

Trip Planner

Search our weather history database for the weather conditions in past years. The results will help you decide how hot, cold, wet, or windy it might be!

Date:

Astronomy

Jan. 04, 2013 Rise Set
Actual Time 6:45 AM PST 4:49 PM PST
Civil Twilight 6:18 AM PST 5:16 PM PST
Nautical Twilight 5:47 AM PST 5:47 PM PST
Astronomical Twilight 5:17 AM PST 6:17 PM PST
Moon No Moon Rise 10:55 AM PST (1/4)
Length of Visible Light 10h 58m
Length of Day
10h 04m
Waning Gibbous, 54% of the Moon is Illuminated
Jan 4
Waning Gibbous
Jan 4
Last Quarter
Jan 11
New
Jan 18
First Quarter
Jan 26
Full

Hourly Weather History & Observations

Time (PST) Temp. Windchill Dew Point Humidity Pressure Visibility Wind Dir Wind Speed Gust Speed Precip Events Conditions
12:53 AM 37.9 °F 32.1 °F 17.1 °F 43% 30.22 in 10.0 mi West 8.1 mph - N/A   Clear
1:53 AM 36.0 °F 31.1 °F 18.0 °F 48% 30.24 in 10.0 mi West 5.8 mph - N/A   Clear
2:53 AM 35.1 °F 30.1 °F 17.1 °F 48% 30.25 in 10.0 mi WSW 5.8 mph - N/A   Clear
3:53 AM 36.0 °F 31.1 °F 16.0 °F 44% 30.25 in 10.0 mi WSW 5.8 mph - N/A   Clear
4:53 AM 35.1 °F 27.9 °F 15.1 °F 44% 30.25 in 10.0 mi West 9.2 mph - N/A   Clear
5:53 AM 33.1 °F 27.7 °F 14.0 °F 46% 30.27 in 10.0 mi WSW 5.8 mph - N/A   Clear
6:53 AM 33.1 °F 30.0 °F 15.1 °F 48% 30.28 in 10.0 mi WSW 3.5 mph - N/A   Clear
7:53 AM 37.9 °F 34.4 °F 17.1 °F 43% 30.31 in 10.0 mi West 4.6 mph - N/A   Clear
8:53 AM 46.9 °F - 18.0 °F 32% 30.32 in 10.0 mi West 4.6 mph - N/A   Clear
9:53 AM 55.0 °F - 19.9 °F 25% 30.32 in 10.0 mi WSW 3.5 mph - N/A   Clear
10:53 AM 60.1 °F - 9.0 °F 13% 30.31 in 10.0 mi Calm Calm - N/A   Clear
11:53 AM 62.1 °F - 9.0 °F 12% 30.27 in 10.0 mi ENE 4.6 mph - N/A   Clear
12:53 PM 62.1 °F - 14.0 °F 15% 30.24 in 10.0 mi Variable 3.5 mph - N/A   Clear
1:53 PM 62.1 °F - 14.0 °F 15% 30.22 in 10.0 mi NW 3.5 mph - N/A   Clear
2:53 PM 62.1 °F - 14.0 °F 15% 30.22 in 10.0 mi Calm Calm - N/A   Clear
3:53 PM 62.1 °F - 14.0 °F 15% 30.22 in 10.0 mi Calm Calm - N/A   Clear
4:53 PM 57.9 °F - 17.1 °F 20% 30.22 in 10.0 mi Calm Calm - N/A   Clear
5:53 PM 48.0 °F - 18.0 °F 30% 30.23 in 10.0 mi WNW 3.5 mph - N/A   Clear
6:53 PM 46.9 °F - 18.0 °F 32% 30.24 in 10.0 mi Calm Calm - N/A   Clear
7:53 PM 46.9 °F - 15.1 °F 28% 30.25 in 10.0 mi NE 4.6 mph - N/A   Clear
8:53 PM 39.9 °F 35.8 °F 19.9 °F 45% 30.27 in 10.0 mi WSW 5.8 mph - N/A   Clear
9:53 PM 41.0 °F 38.0 °F 19.0 °F 41% 30.27 in 10.0 mi West 4.6 mph - N/A   Clear
10:53 PM 39.0 °F 34.8 °F 17.1 °F 41% 30.27 in 10.0 mi WSW 5.8 mph - N/A   Clear
11:53 PM 37.0 °F 33.3 °F 17.1 °F 44% 30.27 in 10.0 mi West 4.6 mph - N/A   Clear